Weather History for Swainsboro, GA

Change the Weather History Date:

Friday, April 12, 2013

  Actual Average Record
Temperature  
Mean Temperature 68 °F -  
Max Temperature 80 °F 77 °F 80 °F (2013)
Min Temperature 53 °F 49 °F 51 °F (2014)
Cooling Degree Days 2    
Growing Degree Days 18 (Base 50)    
Moisture  
Dew Point 62 °F    
Average Humidity 77    
Maximum Humidity 100    
Minimum Humidity 34    
Precipitation  
Precipitation 0.00 in - - ()
Sea Level Pressure  
Sea Level Pressure 29.80 in    
Wind  
Wind Speed 9 mph (WSW)    
Max Wind Speed 16 mph    
Max Gust Speed 25 mph    
Visibility 10 miles    
Events Thunderstorm    
Averages and records for this station are not official NWS values.
T = Trace of Precipitation, MM = Missing Value Source: NWS Daily Summary

Daily Weather History Graph

Daily Weather History Graph

Search for Another Location

Airport:

Trip Planner

Search our weather history database for the weather conditions in past years. The results will help you decide how hot, cold, wet, or windy it might be!

Date:

Astronomy

Apr. 12, 2013 Rise Set
Actual Time 7:03 AM EDT 7:57 PM EDT
Civil Twilight 6:38 AM EDT 8:22 PM EDT
Nautical Twilight 6:08 AM EDT 8:52 PM EDT
Astronomical Twilight 5:37 AM EDT 9:23 PM EDT
Moon 8:19 AM EDT (4/12) 10:18 PM EDT (4/12)
Length of Visible Light 13h 44m
Length of Day
12h 54m
Waxing Crescent, 5% of the Moon is Illuminated
Apr 12
Waxing Crescent
Apr 18
First Quarter
Apr 25
Full
May 2
Last Quarter
May 9
New

Hourly Weather History & Observations

Time (EDT) Temp. Heat Index Dew Point Humidity Pressure Visibility Wind Dir Wind Speed Gust Speed Precip Events Conditions
12:15 AM 69.8 °F - 69.8 °F 100% 29.82 in 10.0 mi South 10.4 mph - N/A   Overcast
12:35 AM 69.8 °F - 69.8 °F 100% 29.82 in 10.0 mi South 10.4 mph - N/A   Overcast
12:55 AM 69.8 °F - 69.8 °F 100% 29.83 in 10.0 mi South 8.1 mph 17.3 mph N/A   Overcast
1:15 AM 69.8 °F - 69.8 °F 100% 29.82 in 10.0 mi SSW 6.9 mph - N/A Thunderstorm Overcast
1:35 AM 69.8 °F - 69.8 °F 100% 29.81 in 10.0 mi SSW 6.9 mph - N/A   Overcast
1:55 AM 69.8 °F - 69.8 °F 100% 29.79 in 10.0 mi SSW 8.1 mph - N/A   Mostly Cloudy
2:15 AM 69.8 °F - 69.8 °F 100% 29.77 in 10.0 mi South 8.1 mph - N/A   Scattered Clouds
2:35 AM 69.8 °F - 69.8 °F 100% 29.74 in 10.0 mi South 9.2 mph - N/A   Scattered Clouds
2:55 AM 69.8 °F - 69.8 °F 100% 29.75 in 10.0 mi South 8.1 mph - N/A   Mostly Cloudy
3:15 AM 69.8 °F - 69.8 °F 100% 29.75 in 10.0 mi SSW 4.6 mph - N/A   Overcast
3:35 AM 69.8 °F - 69.8 °F 100% 29.75 in 10.0 mi South 5.8 mph - N/A   Overcast
3:55 AM 69.8 °F - 69.8 °F 100% 29.76 in 10.0 mi SSW 5.8 mph - N/A   Overcast
4:15 AM 69.8 °F - 69.8 °F 100% 29.76 in 10.0 mi SW 8.1 mph - N/A   Overcast
4:35 AM 69.8 °F - 69.8 °F 100% 29.76 in 10.0 mi SSW 6.9 mph - N/A   Overcast
4:55 AM 69.8 °F - 69.8 °F 100% 29.76 in 10.0 mi SW 9.2 mph - N/A   Overcast
5:15 AM 69.8 °F - 69.8 °F 100% 29.76 in 10.0 mi SSW 6.9 mph - N/A   Overcast
5:35 AM 69.8 °F - 69.8 °F 100% 29.76 in 10.0 mi SSW 5.8 mph - N/A   Overcast
5:55 AM 69.8 °F - 69.8 °F 100% 29.76 in 10.0 mi SSW 6.9 mph - N/A   Mostly Cloudy
6:15 AM 69.8 °F - 69.8 °F 100% 29.76 in 10.0 mi SSW 6.9 mph - N/A   Overcast
6:35 AM 69.8 °F - 69.8 °F 100% 29.76 in 10.0 mi SSW 4.6 mph - N/A   Overcast
6:55 AM 68.0 °F - 68.0 °F 100% 29.76 in 10.0 mi SSW 4.6 mph - N/A   Mostly Cloudy
7:15 AM 68.0 °F - 68.0 °F 100% 29.76 in 7.0 mi South 4.6 mph - N/A   Scattered Clouds
7:35 AM 68.0 °F - 68.0 °F 100% 29.76 in 7.0 mi SSW 3.5 mph - N/A   Scattered Clouds
7:55 AM 69.8 °F - 69.8 °F 100% 29.76 in 10.0 mi South 4.6 mph - N/A   Clear
8:15 AM 69.8 °F - 69.8 °F 100% 29.77 in 10.0 mi South 8.1 mph - N/A   Clear
8:35 AM 71.6 °F - 71.6 °F 100% 29.77 in 10.0 mi SW 10.4 mph 16.1 mph N/A   Scattered Clouds
8:55 AM 71.6 °F - 71.6 °F 100% 29.77 in 10.0 mi SW 8.1 mph - N/A   Scattered Clouds
9:15 AM 73.4 °F - 71.6 °F 94% 29.78 in 10.0 mi SW 10.4 mph 17.3 mph N/A   Mostly Cloudy
9:35 AM 73.4 °F - 69.8 °F 88% 29.78 in 10.0 mi SSW 9.2 mph 19.6 mph N/A   Overcast
9:55 AM 75.2 °F - 69.8 °F 83% 29.77 in 10.0 mi WSW 10.4 mph 18.4 mph N/A   Overcast
10:15 AM 77.0 °F - 69.8 °F 78% 29.78 in 10.0 mi WSW 9.2 mph 20.7 mph N/A   Overcast
10:55 AM 77.0 °F - 68.0 °F 74% 29.78 in 10.0 mi SW 9.2 mph 23.0 mph N/A   Overcast
11:15 AM 73.4 °F - 68.0 °F 83% 29.80 in 10.0 mi West 11.5 mph 21.9 mph N/A   Overcast
11:35 AM 73.4 °F - 68.0 °F 83% 29.80 in 10.0 mi WNW 11.5 mph 17.3 mph N/A   Mostly Cloudy
11:55 AM 75.2 °F - 66.2 °F 73% 29.80 in 10.0 mi WNW 12.7 mph 20.7 mph N/A   Mostly Cloudy
12:15 PM 75.2 °F - 66.2 °F 73% 29.80 in 10.0 mi West 12.7 mph 20.7 mph N/A   Overcast
12:35 PM 73.4 °F - 66.2 °F 78% 29.81 in 10.0 mi WNW 10.4 mph 18.4 mph N/A   Overcast
12:55 PM 73.4 °F - 66.2 °F 78% 29.81 in 10.0 mi WNW 13.8 mph 19.6 mph N/A   Overcast
1:15 PM 73.4 °F - 64.4 °F 73% 29.80 in 10.0 mi WNW 12.7 mph 20.7 mph N/A   Overcast
1:35 PM 77.0 °F - 64.4 °F 65% 29.79 in 10.0 mi WNW 16.1 mph 24.2 mph N/A   Scattered Clouds
1:55 PM 75.2 °F - 64.4 °F 69% 29.80 in 10.0 mi WNW 10.4 mph 20.7 mph N/A   Mostly Cloudy
2:15 PM 77.0 °F - 64.4 °F 65% 29.80 in 10.0 mi WNW 15.0 mph 19.6 mph N/A   Overcast
2:35 PM 77.0 °F - 64.4 °F 65% 29.80 in 10.0 mi WNW 11.5 mph 17.3 mph N/A   Mostly Cloudy
2:55 PM 77.0 °F - 64.4 °F 65% 29.79 in 10.0 mi WNW 10.4 mph - N/A   Overcast
3:15 PM 77.0 °F - 64.4 °F 65% 29.79 in 10.0 mi NW 12.7 mph 18.4 mph N/A   Overcast
3:35 PM 78.8 °F - 62.6 °F 57% 29.78 in 10.0 mi West 16.1 mph 21.9 mph N/A   Overcast
3:55 PM 80.6 °F 81.5 °F 60.8 °F 51% 29.77 in 10.0 mi West 12.7 mph 25.3 mph N/A   Scattered Clouds
4:15 PM 80.6 °F 81.1 °F 59.0 °F 48% 29.77 in 10.0 mi WNW 15.0 mph 23.0 mph N/A   Scattered Clouds
4:35 PM 78.8 °F - 59.0 °F 51% 29.77 in 10.0 mi WNW 9.2 mph 18.4 mph N/A   Scattered Clouds
4:55 PM 80.6 °F 81.1 °F 59.0 °F 48% 29.77 in 10.0 mi WNW 8.1 mph 19.6 mph N/A   Mostly Cloudy
5:15 PM 80.6 °F 80.5 °F 55.4 °F 42% 29.77 in 10.0 mi West 9.2 mph 18.4 mph N/A   Scattered Clouds
5:35 PM 80.6 °F - 51.8 °F 37% 29.77 in 10.0 mi West 10.4 mph 19.6 mph N/A   Clear
5:55 PM 80.6 °F - 51.8 °F 37% 29.78 in 10.0 mi WNW 10.4 mph - N/A   Clear
6:15 PM 78.8 °F - 51.8 °F 39% 29.79 in 10.0 mi NW 11.5 mph 19.6 mph N/A   Clear
6:35 PM 78.8 °F - 48.2 °F 34% 29.80 in 10.0 mi WNW 13.8 mph - N/A   Clear
6:55 PM 77.0 °F - 46.4 °F 34% 29.80 in 10.0 mi WNW 10.4 mph - N/A   Clear
7:15 PM 77.0 °F - 46.4 °F 34% 29.81 in 10.0 mi NW 10.4 mph 17.3 mph N/A   Clear
7:35 PM 73.4 °F - 46.4 °F 38% 29.81 in 10.0 mi WNW 8.1 mph - N/A   Clear
7:55 PM 71.6 °F - 44.6 °F 38% 29.82 in 10.0 mi WNW 6.9 mph - N/A   Clear
8:15 PM 68.0 °F - 46.4 °F 46% 29.82 in 10.0 mi WNW 3.5 mph - N/A   Clear
8:35 PM 64.4 °F - 48.2 °F 56% 29.83 in 10.0 mi WNW 3.5 mph - N/A   Clear
8:55 PM 64.4 °F - 48.2 °F 56% 29.85 in 10.0 mi WNW 4.6 mph - N/A   Clear
9:15 PM 62.6 °F - 48.2 °F 59% 29.86 in 10.0 mi NW 4.6 mph - N/A   Clear
9:35 PM 60.8 °F - 48.2 °F 63% 29.87 in 10.0 mi NW 4.6 mph - N/A   Clear
9:55 PM 59.0 °F - 50.0 °F 72% 29.88 in 10.0 mi NW 5.8 mph - N/A   Clear
10:15 PM 57.2 °F - 50.0 °F 77% 29.89 in 10.0 mi NW 4.6 mph - N/A   Clear
10:35 PM 59.0 °F - 50.0 °F 72% 29.90 in 10.0 mi NW 4.6 mph - N/A   Clear
10:55 PM 57.2 °F - 48.2 °F 72% 29.90 in 10.0 mi WNW 3.5 mph - N/A   Clear
11:15 PM 55.4 °F - 50.0 °F 82% 29.90 in 10.0 mi NW 5.8 mph - N/A   Clear
11:35 PM 55.4 °F - 48.2 °F 77% 29.91 in 10.0 mi NW 5.8 mph - N/A   Clear
11:55 PM 53.6 °F - 48.2 °F 82% 29.91 in 10.0 mi NNW 5.8 mph - N/A   Clear